Location: Eastlake (historical)
(39.0077°N, 122.6678°W)
Time: 10:11:14
(UTC+00:00)

Cosmos 1898 Rocket - Pass Details

Date: 25 November 2020
Orbit: 754 x 783 km, 74.0° (Epoch: 25 January)

Event Time Altitude Azimuth Distance (km) Brightness Sun altitude
Rises 13:49:28 0° 194° (SSW) 3,234 6.8 -14.5°
Reaches altitude 10° 13:51:50 10° 193° (SSW) 2,315 6.0 -14.1°
Maximum altitude 13:57:06 81° 107° (ESE) 794 3.7 -13.1°
Drops below altitude 10° 14:02:26 10° 21° (NNE) 2,343 6.1 -12.1°
Sets 14:04:50 0° 20° (NNE) 3,277 6.8 -11.7°
